Retour au catalogue

ORBCOMM FM 40

ActifCommunicationsLEO
NORAD 33065·PAYLOAD·🇺🇸 United States

Lancé Jun 19, 2008 depuis Kapustin Yar

Loading…

Prochains Passages (prochaines 24 heures)

TLE

FraisSource: Space-Track

Époque: Sep 14, 2026, 05:09 UTC

1 33065U 08031F   26257.21466721  .00001072  00000-0  15252-3 0  9998
2 33065  48.4423 317.2653 0006194 197.6186 201.5286 14.84318632981562

Suivez ORBCOMM FM 40 en temps réel avec AllMySat

Download on the App Store